RH
39 38 25 23 24 21 22 24 26 30 34 30 26 42 61 45 24 40 69 79 79 87 100 100 92 92 96 96 97 99 100 100 100 100 100 100 100 100 100 100 100 100 100 100 100 100 100 100 100 100 99 96 94 96 100 100 100 100 100 100 100 100 100 99 98 97 98 99 99 99 98 93 87 83 80 82 88 91 89 85 80 77 74 71 68 65 62
43 43 27 22 22 21 21 24 31 35 38 40 34 47 65 46 32 60 80 79 83 89 95 102 99 94 95 96 99 100 99 100 100 100 100 100 100 100 100 100 100 100 100 100 100 101 100 100 101 100 97 97 97 98 100 100 100 101 100 99 99 98 97 98 97 98 99 98 97 97 91 81 78 81 83 89 97 97 92 86 79 75 74 70 65 63 62
42 47 41 30 25 26 24 27 40 43 40 43 38 42 62 61 55 73 85 80 80 86 95 102 100 97 98 99 101 100 99 101 100 99 101 100 100 101 100 100 100 100 100 101 100 100 100 100 100 100 99 98 98 100 100 100 101 100 94 92 93 92 91 91 92 95 94 91 87 83 77 70 71 78 83 88 95 95 92 87 79 73 71 67 63 63 63
39 45 51 42 35 34 27 28 41 43 37 37 34 37 56 66 67 75 79 76 80 91 99 100 98 97 96 97 100 100 100 100 100 100 101 100 100 100 100 100 100 100 100 100 100 100 100 100 100 100 100 100 99 100 100 100 101 96 88 88 92 90 86 83 84 86 84 81 79 74 72 73 75 80 85 90 95 96 93 88 78 70 68 65 63 64 64
36 49 63 48 37 33 28 38 50 45 40 40 35 34 46 61 74 76 68 67 82 98 101 99 100 98 94 96 98 98 99 100 100 100 99 100 100 100 100 100 100 100 100 100 100 100 100 100 100 100 100 99 100 100 100 101 100 93 88 90 91 84 76 73 77 80 77 79 81 77 73 77 82 87 93 98 99 97 94 88 77 68 66 64 64 66 66
37 53 73 52 38 37 40 63 74 54 39 37 32 31 38 51 66 72 70 74 89 100 100 99 100 96 93 95 95 95 98 99 99 99 99 100 100 99 100 100 100 101 100 100 100 100 100 100 100 100 100 98 99 99 100 100 97 93 91 89 85 77 70 71 78 82 81 82 85 81 76 79 86 93 98 99 98 96 93 85 74 66 63 62 64 69 67
46 60 75 49 38 50 61 76 85 74 61 50 41 40 45 54 61 68 81 93 97 99 99 96 96 94 93 96 98 99 99 97 98 99 100 100 99 99 100 100 100 100 100 100 100 99 100 100 99 100 100 98 97 99 101 99 96 93 88 84 82 77 74 77 80 82 84 86 88 87 87 90 93 97 99 97 97 97 90 76 65 60 58 60 65 71 66
44 58 69 55 49 58 67 68 67 71 66 48 38 35 35 50 62 61 74 93 97 97 98 97 97 97 96 98 99 99 99 98 96 96 98 99 95 95 99 100 100 100 99 100 100 99 100 100 99 101 100 95 95 98 99 97 93 88 81 78 84 86 83 83 79 77 83 89 90 91 95 97 97 98 100 98 98 97 83 64 54 52 56 64 69 69 61
52 62 64 66 63 55 60 60 51 53 47 36 46 46 34 48 66 65 75 95 99 98 100 100 100 99 98 99 100 100 99 98 94 91 93 94 88 89 97 100 99 100 100 100 100 100 101 100 99 100 98 94 94 98 99 95 90 84 77 76 81 85 87 87 83 80 84 90 92 93 95 96 95 98 99 98 97 89 68 47 41 46 57 69 72 65 56
76 81 66 65 61 52 61 67 61 62 59 55 66 59 42 52 69 74 87 99 100 99 100 100 100 99 98 99 99 100 99 97 96 95 93 92 89 91 99 101 100 100 100 100 101 100 100 100 99 100 99 95 95 99 99 94 87 80 75 71 71 72 76 83 87 89 89 90 90 89 90 92 93 95 95 93 88 72 47 31 31 41 55 66 70 69 60
78 84 69 59 53 53 65 70 65 66 66 63 57 43 42 59 67 75 91 97 97 101 100 99 101 99 100 102 98 99 100 96 96 97 95 95 94 95 100 100 99 101 100 100 101 99 100 100 99 100 99 97 99 100 95 89 83 77 73 70 69 69 72 79 90 94 91 88 87 86 89 90 86 84 85 84 73 49 27 20 25 36 51 60 67 74 68
70 78 65 53 55 61 66 68 66 64 61 53 40 36 54 68 63 69 88 95 97 101 99 99 100 95 94 94 91 95 100 97 95 94 92 92 94 97 101 100 99 100 100 100 100 99 100 100 99 100 99 99 101 97 88 83 80 76 73 71 72 72 72 79 90 92 89 90 92 90 87 81 76 76 79 73 52 29 17 17 21 35 52 59 62 71 71
67 66 49 42 56 64 64 69 69 58 48 44 48 56 65 64 58 64 80 89 95 100 100 97 94 86 76 71 77 94 101 97 97 96 92 90 91 94 98 99 100 101 100 99 99 99 100 100 99 100 100 100 98 91 84 82 80 78 75 72 72 73 75 82 90 91 91 95 95 89 81 76 76 79 79 64 37 19 16 17 17 29 46 53 55 62 68
55 64 56 48 57 62 65 73 68 50 40 47 63 69 61 58 62 65 71 83 91 98 100 93 84 77 66 58 70 93 101 98 99 99 97 96 96 96 98 99 99 100 100 100 100 99 100 100 100 100 99 98 94 88 85 83 81 78 74 71 72 75 79 87 92 94 96 95 91 86 82 82 83 83 84 71 40 18 16 16 14 20 30 37 41 45 54
51 67 62 51 59 67 71 71 62 54 58 64 70 68 57 58 66 64 66 78 85 93 99 91 78 72 64 59 72 92 100 100 100 100 100 99 99 99 100 99 99 100 100 100 99 99 99 100 100 98 95 94 92 89 86 83 80 77 73 72 75 78 83 90 95 97 95 90 89 88 87 88 87 85 89 82 49 20 15 16 14 15 19 22 24 25 30
55 57 57 59 71 80 79 72 63 65 71 69 67 67 60 57 60 61 65 72 78 86 93 86 76 69 59 61 78 92 98 100 100 100 101 100 99 100 100 99 100 100 100 100 99 98 98 99 99 96 92 91 89 87 85 82 78 76 73 73 77 81 85 90 93 92 90 88 90 90 89 89 87 84 86 76 44 19 16 16 13 14 14 14 15 14 15
65 62 71 77 77 76 76 75 71 69 67 65 66 67 61 57 60 62 64 67 73 83 87 81 75 65 55 61 76 85 91 99 100 100 100 100 100 100 100 100 100 100 99 100 100 99 99 100 99 94 90 86 82 81 83 81 77 75 74 75 80 84 87 89 89 88 88 89 88 88 88 84 75 69 67 53 29 18 18 16 13 13 13 12 12 11 12
77 75 79 79 75 74 73 72 68 65 62 61 61 61 58 57 58 59 61 64 68 77 82 79 72 61 55 64 75 79 86 98 101 99 100 101 100 100 100 100 100 100 100 99 100 100 100 100 96 90 87 83 79 79 81 80 77 75 73 75 82 87 89 88 87 87 88 88 86 86 82 67 48 43 41 30 21 22 23 18 16 15 14 15 14 12 11
85 81 81 79 75 75 73 68 63 62 61 59 58 57 57 57 55 55 59 62 65 71 77 75 68 59 56 64 75 81 88 97 101 100 99 101 100 100 100 99 97 97 98 99 100 100 97 94 90 84 83 83 81 80 80 80 78 75 74 76 83 88 88 87 87 87 86 85 85 84 74 51 29 25 28 26 27 29 26 22 21 19 15 14 13 12 11
83 77 79 76 68 67 70 69 65 62 60 60 58 57 57 58 60 60 61 63 66 68 70 69 63 58 57 63 73 86 96 99 100 100 100 100 100 100 100 99 96 96 98 99 99 97 94 89 85 82 82 83 83 82 80 80 78 75 75 78 83 86 87 85 84 84 83 83 83 80 71 55 42 35 33 34 36 33 27 24 20 16 14 13 10 10 10
86 81 79 73 67 68 69 66 65 64 61 58 58 59 58 60 65 68 67 67 68 67 66 66 60 57 62 68 73 84 96 100 99 100 100 100 100 100 100 100 98 98 98 98 96 94 90 84 80 80 81 81 82 81 78 77 77 76 77 80 82 83 84 82 81 82 83 83 80 74 70 69 66 55 44 41 42 39 36 36 32 26 21 16 10 9 9
90 87 80 75 77 80 74 67 65 64 60 58 58 58 58 61 69 73 70 69 70 69 65 62 57 57 70 83 85 86 92 98 100 100 100 100 100 100 100 100 100 97 95 93 92 89 85 79 77 77 78 79 81 80 75 75 75 75 77 80 81 81 81 80 80 82 82 81 78 72 70 75 75 63 51 50 53 51 49 51 53 49 41 28 14 8 9
88 83 78 78 81 80 74 70 67 63 60 59 57 56 57 61 67 73 72 69 69 71 68 63 59 58 65 78 90 95 96 99 100 100 100 100 100 100 100 99 99 97 94 92 90 86 82 78 76 75 77 79 81 79 75 74 74 75 77 79 79 80 80 79 80 81 81 81 78 72 72 77 73 62 56 60 65 63 59 59 61 58 56 49 30 11 7
81 75 75 78 79 74 70 69 68 64 60 59 57 57 59 60 61 67 70 67 65 66 67 67 67 65 59 64 82 96 97 98 100 99 100 101 100 99 100 99 97 96 94 92 89 84 81 80 78 77 79 81 80 78 76 75 75 75 76 77 77 79 79 78 79 80 81 81 79 75 74 75 69 61 60 65 68 67 64 64 63 58 58 60 44 18 7
75 72 73 74 74 71 69 68 67 65 62 59 58 59 60 60 60 63 67 68 65 64 63 63 68 70 66 69 84 94 91 91 97 99 99 101 100 100 100 98 96 96 93 90 88 85 82 81 80 80 81 80 78 77 76 74 75 76 76 76 77 77 78 78 80 80 80 81 81 77 75 71 65 63 66 66 66 65 63 63 63 59 60 64 50 21 7
70 69 69 69 69 67 65 65 67 67 65 61 60 61 62 61 63 64 66 68 69 69 68 66 66 70 73 79 89 92 87 87 94 98 99 100 100 100 100 98 96 94 91 89 88 85 82 79 78 80 81 79 76 76 75 74 75 75 75 76 76 76 78 78 78 79 81 82 79 75 71 68 67 67 67 63 61 61 60 60 61 60 61 61 43 17 9
65 65 66 69 71 69 66 68 70 70 68 65 63 64 64 62 63 66 68 70 72 74 77 78 77 81 88 92 94 92 86 86 92 97 99 99 98 97 98 97 95 93 91 88 87 84 81 78 77 78 79 78 76 75 75 74 75 75 76 76 77 77 78 77 76 79 81 79 74 71 69 69 70 68 65 63 61 57 55 55 55 51 48 42 26 12 11
64 65 66 69 72 72 72 72 71 70 69 68 66 66 66 65 65 65 67 71 74 78 82 86 89 91 94 94 94 92 88 87 91 96 97 96 96 96 96 94 93 92 90 88 86 82 79 78 78 78 78 78 77 75 74 74 75 75 75 76 77 78 78 77 77 78 77 72 69 68 68 69 69 67 65 63 59 56 55 51 42 31 26 20 13 10 13
65 67 67 68 69 71 72 72 72 71 70 69 68 67 67 68 68 69 70 73 78 82 84 86 89 88 82 79 83 88 87 86 88 91 93 95 96 95 94 92 91 89 87 87 85 81 77 77 79 79 78 77 77 76 75 75 74 74 74 75 75 76 75 73 72 72 72 71 69 70 70 68 66 65 64 60 57 56 52 40 24 14 12 11 9 10 11
66 67 69 70 69 69 71 71 72 72 71 70 68 67 67 67 68 71 74 76 81 87 87 86 88 87 80 75 79 85 86 84 85 88 91 94 94 93 92 91 90 88 86 86 84 79 76 77 79 79 78 78 78 77 75 75 76 75 72 68 66 65 65 64 65 69 72 72 72 71 69 66 65 64 62 60 58 54 40 23 11 8 9 9 8 9 10
64 65 68 70 69 69 71 72 72 71 71 70 68 68 70 70 69 71 76 79 83 87 89 89 90 88 82 79 83 88 89 88 87 88 90 91 91 90 89 88 86 85 84 84 82 79 77 78 80 81 80 79 78 77 76 77 77 72 65 60 59 61 62 63 66 70 72 73 73 70 67 67 68 65 60 60 58 45 24 11 8 9 9 10 13 17 20
65 66 68 69 70 71 73 74 73 73 72 71 68 68 70 71 69 72 77 82 84 86 88 91 93 90 85 85 88 90 92 92 91 91 90 89 89 88 87 86 85 83 82 82 81 79 78 80 83 84 82 80 79 78 77 76 71 64 60 60 60 63 67 69 70 72 74 73 71 68 68 69 65 56 52 52 45 25 10 7 11 13 15 20 26 33 38
66 68 70 71 72 73 75 75 75 75 75 73 72 71 71 70 69 70 74 78 83 86 89 92 94 93 90 89 89 89 91 92 92 91 90 89 88 88 87 87 86 84 84 83 81 79 79 80 82 81 80 80 81 79 75 71 67 64 64 65 65 68 72 73 73 73 72 69 67 67 65 61 52 43 40 35 22 10 13 22 28 30 33 36 39 43 47
63 65 67 69 70 72 75 76 76 77 78 78 79 79 77 74 74 74 72 71 75 82 88 93 96 96 94 91 90 90 91 91 92 91 90 89 88 88 87 86 85 84 84 83 81 81 82 80 77 76 74 74 77 77 75 73 72 72 71 70 71 73 74 72 72 70 65 61 59 56 48 39 31 25 22 19 17 24 36 45 46 47 47 47 47 47 47
60 61 63 67 69 71 75 76 77 77 78 78 80 82 82 81 81 80 76 72 71 74 78 85 92 97 97 94 93 93 91 90 91 91 90 90 89 88 87 86 84 83 84 83 83 83 81 77 75 75 73 72 75 78 80 80 78 76 74 74 75 74 72 70 68 62 54 46 39 31 23 17 14 14 20 28 37 45 50 50 49 49 49 48 48 49 48
61 61 62 65 68 70 72 73 73 72 71 71 72 74 75 78 81 82 81 78 74 72 71 74 81 91 96 96 95 93 91 91 91 92 92 92 91 90 89 87 85 85 85 85 84 83 80 77 75 74 73 76 80 82 83 83 81 78 76 76 74 71 69 67 60 47 34 25 17 12 12 11 9 15 31 44 48 47 46 46 47 49 48 47 47 48 49
62 61 62 65 70 72 71 69 69 70 69 69 71 70 69 70 74 80 84 83 78 75 75 73 74 82 91 94 95 94 93 92 92 92 93 93 92 92 91 89 88 87 85 83 83 81 79 78 76 72 74 81 85 85 84 83 81 78 75 72 68 66 66 60 44 25 15 14 17 23 30 31 27 30 41 47 47 46 46 46 46 47 48 48 47 47 48
61 60 61 67 72 72 68 66 70 73 74 75 79 80 78 74 73 76 81 82 78 77 76 73 72 78 88 93 94 94 94 94 93 92 92 91 91 91 90 88 87 86 83 81 81 80 78 78 75 72 74 79 81 80 80 80 77 74 70 66 63 63 59 45 26 14 16 28 39 46 49 48 45 45 47 47 46 47 47 47 47 48 48 47 46 46 46
59 57 61 67 72 75 74 74 76 78 78 80 85 87 86 84 82 81 82 82 80 77 75 73 72 77 85 92 94 94 94 94 93 92 92 91 89 89 88 86 85 84 83 81 80 79 78 78 75 71 72 75 74 75 77 75 71 67 65 62 62 60 51 37 27 28 36 43 49 51 50 48 46 46 47 47 46 45 46 48 50 49 47 45 45 45 45
59 58 62 67 70 73 75 75 76 78 79 82 86 88 88 89 89 89 88 88 87 85 84 85 85 86 88 91 94 94 93 94 93 92 92 91 89 88 87 86 85 84 83 82 80 78 76 75 72 70 72 75 77 78 77 74 70 67 65 63 62 58 48 40 40 45 47 45 47 50 50 48 46 46 46 47 47 45 45 47 49 48 47 48 48 47 46
60 60 64 67 66 65 65 67 73 80 82 82 82 84 86 87 88 90 91 92 93 94 95 96 97 97 96 96 96 95 95 95 94 92 91 90 88 86 85 84 84 84 83 81 78 76 74 73 74 75 77 79 81 80 77 73 71 70 69 67 64 57 48 44 46 49 49 48 50 52 51 48 46 45 46 47 47 47 46 46 47 46 47 49 49 48 46
62 62 63 63 61 61 62 66 72 77 79 80 82 84 85 86 87 89 91 93 96 98 98 97 99 100 100 100 100 99 98 96 94 93 91 89 86 85 84 83 83 83 82 79 78 77 76 76 77 79 80 82 83 82 78 75 73 72 71 70 67 59 52 48 49 51 53 53 52 52 50 48 47 48 48 47 47 46 46 46 45 45 46 48 47 46 45
63 64 64 64 64 65 66 67 69 72 76 79 83 84 85 86 88 90 92 94 97 99 98 98 98 98 99 100 100 100 100 99 96 94 92 89 87 85 83 81 81 80 79 79 80 80 79 79 79 80 83 85 86 84 80 77 75 73 70 68 65 60 55 52 52 53 55 55 54 53 51 49 49 49 47 45 44 45 46 47 46 45 46 46 46 45 45
64 66 65 65 67 69 67 65 69 75 79 80 82 83 84 85 87 89 91 94 97 99 99 98 96 95 97 99 100 100 100 99 97 94 92 90 89 87 85 84 82 79 78 81 83 82 80 80 81 84 87 88 87 85 82 78 74 70 67 63 59 57 55 54 54 55 55 55 54 52 50 50 50 48 44 43 45 47 47 47 46 45 45 46 45 45 44
67 68 67 67 69 70 65 63 69 78 81 79 80 83 83 84 86 88 89 92 96 99 99 98 98 97 97 99 100 100 100 99 97 95 92 89 87 86 85 84 82 79 80 83 83 81 80 83 86 90 92 92 89 83 77 70 65 64 63 61 58 57 57 56 56 56 56 55 53 51 49 49 48 45 44 45 48 46 44 44 45 45 44 45 44 43 43
68 69 69 69 72 71 64 61 67 77 80 79 82 84 83 83 87 90 90 90 94 97 99 100 100 99 99 100 100 100 100 100 98 95 92 88 86 84 82 81 82 82 83 84 83 82 83 87 91 94 93 89 81 74 69 65 62 60 61 61 59 58 57 57 57 57 56 54 51 48 47 47 47 47 47 48 48 45 43 44 44 44 43 44 44 44 44
69 70 70 71 74 72 66 63 68 75 77 77 79 81 82 81 84 88 89 90 92 94 97 100 100 100 100 100 100 99 99 99 98 96 93 90 87 84 82 82 84 85 84 83 84 86 88 91 93 94 90 83 77 75 74 71 68 65 63 62 61 59 58 58 57 55 53 51 48 47 47 49 49 49 48 47 47 46 45 45 45 45 45 45 45 44 44
69 70 71 73 74 71 68 67 68 70 72 73 73 76 79 81 83 85 89 91 90 90 92 96 99 100 100 100 100 100 99 97 95 94 93 90 87 85 84 83 84 84 83 84 86 90 91 90 89 89 87 85 83 81 76 72 69 67 64 60 57 56 55 54 51 48 47 49 50 49 49 49 49 49 48 48 47 47 47 46 46 46 46 46 46 46 46
66 67 69 70 66 63 67 71 70 66 67 70 71 72 77 81 82 85 89 92 90 89 90 92 95 99 101 100 99 100 100 98 95 92 90 88 87 86 84 83 84 85 85 86 88 89 89 88 87 88 90 90 85 78 72 68 65 61 56 51 49 48 48 48 46 45 46 47 48 48 48 48 49 49 48 48 48 48 47 46 46 45 44 44 44 44 44
64 65 68 71 68 65 68 71 67 63 65 71 72 72 76 80 82 84 88 91 91 90 90 92 95 99 100 100 100 100 100 100 99 94 89 88 89 87 85 86 89 90 89 89 89 89 89 89 89 91 94 91 83 75 70 67 62 56 52 51 50 48 47 47 46 47 48 48 47 48 49 49 49 49 48 48 47 45 44 42 42 41 41 41 41 41 41
63 65 71 76 75 70 66 64 65 68 73 77 76 75 77 82 83 83 84 89 92 93 93 95 98 99 99 100 101 100 99 100 101 96 90 89 91 91 89 91 93 93 92 93 92 90 87 86 87 90 91 89 83 76 71 65 59 56 57 55 52 50 50 50 48 47 47 48 48 49 49 48 48 48 48 46 44 42 40 39 39 40 40 41 41 40 40
68 72 76 77 76 72 67 66 69 73 76 77 76 76 77 81 83 82 83 89 95 96 96 97 99 100 100 100 100 100 100 101 99 95 90 90 94 96 96 95 96 97 98 98 97 92 86 83 83 84 85 84 81 78 74 68 63 61 60 57 51 49 50 51 49 48 48 48 49 49 49 48 48 48 47 46 44 42 40 39 39 40 40 40 40 39 39
Wind_Speed
5 2 5 8 8 8 8 9 8 6 8 9 6 5 6 7 6 6 7 7 6 5 4 5 4 3 5 10 16 20 23 23 23 24 26 29 31 34 35 35 35 34 34 34 34 34 34 34 35 36 35 35 34 32 32 34 33 31 28 27 26 24 23 23 22 20 18 16 15 13 12 12 15 16 15 14 13 11 9 6 6 7 8 8 7 7 7
3 3 3 8 8 8 7 8 9 8 8 8 7 5 4 5 3 5 5 6 3 4 4 3 0 2 5 13 19 22 23 24 24 25 27 28 30 34 36 35 35 35 35 35 35 35 35 36 37 38 37 36 34 34 35 34 31 28 28 26 24 23 23 22 20 19 17 16 15 13 13 17 18 17 15 13 12 10 7 5 6 7 8 8 8 8 7
4 6 2 7 8 8 7 5 5 7 8 6 4 2 3 4 1 1 5 5 2 4 3 2 7 12 13 14 16 19 21 24 25 25 26 27 28 32 35 34 34 35 35 36 36 36 38 38 39 40 39 36 35 36 35 32 29 27 26 25 23 23 21 18 17 16 15 14 12 12 17 20 19 16 14 13 12 10 7 5 6 8 9 9 9 8 7
3 5 5 7 7 8 7 4 4 7 7 5 3 2 3 5 4 3 6 4 3 4 2 5 8 12 12 11 14 18 20 24 28 28 28 29 30 33 35 35 35 36 37 38 38 39 39 40 40 40 39 37 37 36 33 30 28 27 25 24 22 20 17 15 15 15 14 14 14 16 21 21 18 16 14 13 12 10 7 5 6 9 9 9 9 8 7
2 6 4 7 8 8 3 3 5 7 5 5 3 1 1 5 7 6 4 5 5 4 5 6 7 8 8 12 19 23 23 26 29 31 33 33 33 33 34 35 36 36 37 37 38 39 39 39 41 40 39 38 37 35 32 31 29 27 25 22 20 18 17 17 18 17 17 19 20 21 22 21 18 16 15 14 12 9 7 6 7 10 10 10 10 9 8
1 6 4 6 6 4 3 6 5 5 4 6 6 2 4 7 6 4 3 4 6 8 8 8 8 7 8 15 23 28 29 30 30 31 33 34 33 32 32 33 34 35 36 36 36 38 38 39 40 39 37 35 33 32 32 30 28 26 23 20 18 18 19 19 19 20 21 22 22 21 21 20 18 17 15 14 12 9 6 6 8 10 11 11 11 11 10
1 3 5 6 3 5 6 6 4 4 4 7 8 3 1 5 4 3 6 8 10 10 8 8 6 3 3 9 17 24 28 32 33 32 33 34 35 34 33 34 35 35 36 37 37 38 39 40 40 39 38 35 32 32 31 29 27 25 21 18 18 18 19 18 19 21 23 24 23 22 21 19 18 16 14 13 11 9 6 7 9 11 12 12 13 13 12
2 2 5 4 4 5 5 5 3 1 2 5 7 4 4 4 4 4 6 7 9 8 9 10 8 6 6 7 12 19 24 28 31 33 34 36 36 35 36 37 37 37 37 38 39 39 39 40 39 39 38 36 34 34 31 29 26 22 17 16 16 15 15 17 20 23 26 26 24 22 21 19 17 15 13 12 10 8 8 10 12 13 14 14 14 14 13
3 3 2 1 1 4 5 4 2 0 1 2 5 4 2 5 3 4 5 5 7 9 12 14 16 15 11 5 6 16 23 26 30 33 35 36 36 35 36 38 37 36 36 37 38 38 38 38 38 38 37 36 35 34 32 27 23 20 17 16 13 11 12 18 23 26 27 27 24 22 20 18 16 14 13 11 9 8 10 13 15 15 16 16 15 14 13
2 4 3 3 4 2 4 6 6 4 4 5 5 5 1 6 5 2 8 9 9 10 11 16 20 17 9 2 6 17 24 26 28 31 32 33 33 34 36 36 36 35 35 35 36 36 35 36 36 37 37 36 35 33 29 24 21 20 19 16 12 11 14 21 26 27 27 26 24 21 20 18 16 14 13 11 10 10 12 15 16 17 17 17 17 14 13
2 5 4 2 2 1 5 8 8 7 6 5 4 5 1 7 6 1 9 10 10 12 15 18 18 12 4 4 9 21 27 28 29 31 31 32 32 33 35 36 35 35 35 34 34 34 35 36 36 37 38 37 34 31 27 24 21 20 19 17 15 15 18 25 28 27 25 24 22 20 19 17 15 14 12 12 12 13 14 15 17 18 18 18 17 16 14
2 4 3 1 2 1 3 6 8 10 7 1 6 3 5 7 6 1 10 13 13 17 22 21 14 9 8 9 17 27 30 29 31 31 32 32 33 34 35 35 35 35 35 34 34 34 36 36 36 37 38 36 33 30 27 24 22 21 20 18 17 17 22 27 27 25 23 21 20 19 18 17 15 14 14 14 15 16 16 16 17 18 18 17 17 16 14
3 4 3 0 2 3 4 6 11 13 6 4 6 3 7 6 7 2 9 16 17 21 26 21 14 14 12 12 22 32 32 31 33 32 30 31 32 33 34 35 35 36 35 35 35 36 37 37 37 37 36 33 31 29 26 24 23 21 19 18 19 22 25 27 25 23 22 20 19 18 17 17 17 16 14 14 15 16 17 17 18 18 18 17 16 16 14
3 3 3 1 2 3 3 9 13 10 2 3 3 5 8 8 7 2 8 18 20 24 29 22 14 14 10 6 20 33 33 33 35 33 32 32 32 32 34 34 35 36 35 35 36 37 38 38 37 36 34 32 31 28 25 23 22 19 17 19 23 26 26 25 24 22 21 20 19 18 17 17 16 15 13 12 13 15 16 17 17 17 17 16 15 15 14
2 3 4 3 1 2 6 10 9 5 3 3 5 4 5 7 6 2 8 20 22 25 29 21 11 11 8 6 20 34 33 32 33 33 33 33 33 34 34 34 35 35 35 36 36 36 36 36 35 34 34 32 29 25 24 22 21 19 19 21 25 26 24 24 23 21 21 21 20 18 16 16 15 15 14 13 14 15 16 16 17 16 16 15 14 14 13
3 3 1 2 5 4 7 6 1 1 2 1 1 1 3 5 6 4 7 20 25 27 30 22 13 11 10 11 24 35 33 31 32 32 33 33 33 34 35 34 36 36 36 37 36 35 36 36 36 35 33 29 25 23 24 23 21 21 21 22 24 25 23 22 22 21 21 20 19 17 17 16 16 16 16 16 16 17 16 16 16 15 15 14 13 13 12
2 3 5 4 4 4 6 4 1 4 7 7 5 3 5 7 8 6 5 18 26 29 28 22 14 12 12 16 28 35 34 33 33 32 32 32 32 33 35 36 38 38 38 38 37 37 37 37 36 34 31 27 25 25 26 24 23 22 22 22 24 24 23 22 22 22 21 20 18 18 17 16 16 18 20 20 20 19 17 15 15 14 14 13 12 12 12
1 1 2 1 3 5 6 6 5 8 11 10 8 7 7 8 8 9 6 14 26 30 29 24 17 15 16 22 30 34 34 33 33 33 33 32 31 32 35 37 38 37 37 38 38 37 36 35 33 31 28 28 28 28 28 26 25 23 21 22 24 24 23 22 22 22 21 20 19 18 16 15 17 20 22 22 21 19 17 15 14 13 14 13 13 12 12
2 0 2 4 5 6 8 8 7 9 11 10 9 8 9 9 9 9 7 11 23 30 30 27 21 18 20 25 32 35 34 34 34 34 34 33 33 33 34 35 37 37 38 39 38 36 35 33 32 30 30 31 30 28 28 27 26 23 22 23 24 25 24 23 22 22 22 21 20 18 17 18 19 21 22 21 19 18 16 15 15 14 14 14 13 12 12
1 3 5 7 5 4 6 9 9 9 10 9 7 7 8 10 10 9 5 9 20 27 29 26 23 21 23 28 33 35 35 34 34 34 34 33 32 32 33 35 37 38 39 38 35 34 34 33 32 32 32 31 28 27 27 28 26 24 23 24 25 25 25 23 23 23 22 22 22 21 21 22 21 21 21 20 18 16 15 14 14 14 14 13 13 12 11
2 1 4 7 5 3 6 9 10 10 9 8 7 6 7 9 9 7 3 9 18 23 25 25 22 22 25 30 34 36 36 35 34 34 33 32 32 32 33 34 35 36 36 35 33 33 33 33 33 33 31 29 28 27 27 27 26 25 25 25 26 26 25 24 23 24 23 23 23 23 24 24 22 20 21 20 18 15 13 11 10 9 9 10 11 11 10
1 2 3 4 1 1 3 8 10 10 9 9 7 5 6 8 7 5 3 9 15 19 21 21 19 20 25 30 33 35 35 36 35 34 33 32 32 32 32 32 33 34 34 33 33 33 34 34 34 32 30 29 28 27 26 26 26 26 27 27 27 26 25 24 24 25 24 24 23 24 25 24 22 21 21 20 18 15 13 11 9 6 5 5 7 9 10
3 4 5 5 2 3 3 8 9 8 9 9 7 5 5 5 4 4 4 7 13 16 18 18 17 18 19 23 29 33 34 34 33 32 32 32 33 32 32 33 34 34 34 35 35 35 35 35 33 32 31 30 29 27 26 26 26 26 27 28 27 26 25 25 25 25 25 25 24 24 25 24 23 23 23 22 19 16 13 11 9 7 5 3 4 7 9
3 5 6 5 3 2 5 8 8 7 8 8 6 4 4 4 4 4 5 6 9 12 14 15 16 16 15 19 28 32 32 32 31 30 30 31 32 32 33 34 35 35 36 36 36 36 36 35 33 32 31 30 29 28 27 26 26 26 26 26 26 26 25 25 25 25 25 25 25 25 25 24 24 24 23 22 20 18 16 13 11 10 9 6 4 7 9
4 6 6 4 3 3 6 8 8 8 7 7 6 4 3 3 3 3 4 5 6 9 11 12 15 16 16 21 29 32 29 29 29 28 28 30 31 31 33 34 35 36 36 36 37 37 36 34 32 32 32 30 29 28 27 26 26 26 26 25 25 25 25 26 26 26 26 25 25 26 26 26 26 25 23 22 21 21 19 18 16 15 13 9 7 9 11
4 5 4 3 3 4 5 5 7 8 8 7 5 3 3 3 2 2 2 4 6 9 11 11 13 15 18 23 30 30 26 25 26 26 27 29 30 31 33 34 35 36 37 37 38 37 35 32 31 32 32 31 30 29 28 26 25 25 25 25 24 24 25 25 26 27 27 26 26 27 28 28 27 25 23 22 22 21 20 20 20 18 16 13 11 11 12
5 4 2 1 2 5 6 6 7 8 7 6 5 4 3 3 2 1 1 2 4 7 10 11 12 15 20 25 28 26 22 21 23 26 27 28 29 31 32 33 35 36 37 37 37 36 33 31 31 32 32 31 30 29 28 26 25 25 25 25 25 24 24 24 25 27 27 27 28 29 29 28 26 23 22 21 21 20 19 18 17 17 16 14 14 14 14
4 4 2 2 4 7 8 9 8 7 6 6 6 5 4 2 0 0 0 1 2 6 9 10 11 14 17 19 21 22 20 19 22 25 26 27 29 30 32 33 34 35 36 36 36 34 31 30 31 32 32 31 31 29 28 27 26 26 26 26 26 25 25 25 25 26 27 29 30 30 28 26 23 22 21 21 20 19 17 16 15 15 15 15 15 15 15
4 5 4 4 6 7 8 8 7 6 6 6 5 5 6 4 2 1 1 1 2 5 8 9 11 12 13 13 16 19 19 20 21 23 25 27 29 30 32 32 32 33 34 35 34 31 29 30 32 33 33 32 31 30 29 28 27 26 26 26 26 26 26 26 26 27 29 30 29 27 25 23 22 22 21 20 19 18 17 16 15 15 16 17 17 16 16
3 3 3 4 5 5 6 7 7 6 6 5 3 4 5 5 4 3 2 2 4 6 8 9 10 12 13 14 16 19 20 20 20 21 24 27 29 30 31 31 31 32 32 33 32 31 30 31 33 34 34 33 32 30 29 28 27 26 25 24 25 25 26 26 28 29 29 28 26 24 23 23 22 22 21 20 19 17 16 16 17 17 17 17 16 16 15
2 1 2 3 4 5 7 8 7 5 5 4 3 4 5 5 5 5 3 2 3 5 7 9 11 13 15 15 17 19 21 22 21 23 25 27 29 31 31 31 31 31 32 32 32 31 31 31 33 34 33 32 31 30 29 29 27 26 24 24 24 25 26 27 28 28 27 26 25 24 24 24 23 22 21 21 20 18 18 18 19 18 17 17 16 15 14
3 3 4 4 4 5 7 7 6 5 5 3 2 3 4 4 5 5 4 3 1 4 7 9 11 13 14 15 16 19 22 23 24 25 27 27 29 30 31 31 31 31 31 32 32 32 32 32 32 31 29 29 30 30 29 28 26 25 24 25 25 26 26 27 27 27 26 25 25 25 25 24 23 23 23 22 21 20 20 20 20 19 18 17 16 15 13
5 4 4 3 3 4 5 5 4 4 3 3 2 2 2 4 4 4 4 5 5 4 7 10 12 12 12 14 16 18 21 23 25 26 27 27 28 29 30 31 31 31 31 31 31 32 32 30 28 26 25 27 30 30 28 26 25 24 25 25 25 26 26 26 25 25 25 24 24 24 24 24 24 24 23 22 22 22 22 22 21 20 18 17 15 13 11
5 6 5 3 3 3 5 5 5 4 4 3 3 3 2 2 2 2 3 4 5 6 5 9 12 12 12 14 16 18 20 22 24 25 26 27 27 27 28 30 30 30 30 30 31 31 29 27 24 22 22 25 28 27 24 23 23 24 25 25 24 25 25 25 25 24 23 23 23 23 23 24 24 24 24 24 24 24 23 21 19 18 16 14 13 12 11
7 7 6 5 4 4 4 5 5 5 5 4 3 3 2 1 2 2 2 2 4 6 6 6 9 13 14 15 16 17 18 20 22 24 25 26 26 27 28 29 30 30 30 30 30 29 27 24 21 20 21 24 25 24 23 22 22 23 24 24 23 24 24 24 23 22 21 22 23 24 25 25 25 26 26 25 25 23 20 18 17 16 14 13 13 12 11
7 7 6 5 4 3 3 3 4 4 4 5 4 4 3 3 4 4 3 3 4 6 7 7 6 10 14 16 16 16 16 17 19 21 23 24 25 26 27 29 30 31 30 30 29 28 25 23 21 20 22 24 24 23 22 22 22 23 23 23 22 23 24 22 21 20 20 23 24 25 25 24 25 26 26 24 22 20 18 17 17 16 14 13 12 11 10
8 8 7 5 3 3 3 3 4 4 5 5 5 5 5 4 5 6 6 4 4 6 8 8 7 7 10 14 16 16 16 16 17 19 21 22 23 24 26 28 30 30 30 30 29 27 25 23 22 21 23 25 24 22 22 21 21 22 22 22 22 23 23 21 20 21 23 25 25 24 23 23 24 25 24 21 19 18 16 15 16 15 14 13 12 11 10
7 8 8 6 3 3 3 4 5 5 6 5 4 4 4 5 6 7 7 7 6 7 10 12 10 8 9 12 15 17 17 17 17 18 19 20 21 22 24 27 28 29 30 30 29 28 26 24 23 23 25 25 24 22 23 23 22 21 20 20 21 22 21 21 21 24 26 26 24 23 22 22 22 22 21 19 18 17 15 15 14 14 13 12 12 11 11
6 7 7 5 4 4 4 5 7 8 7 6 5 4 4 5 6 6 6 7 7 8 10 12 11 9 9 11 14 16 17 17 18 18 19 20 21 22 23 25 27 29 29 28 27 27 25 24 23 24 25 24 23 23 24 24 23 22 21 21 22 21 21 22 24 25 25 25 24 22 21 21 20 20 19 18 17 15 15 15 14 12 11 11 11 11 11
5 6 5 4 5 5 5 5 7 8 8 8 7 6 6 6 5 5 5 5 5 6 8 9 8 9 10 12 13 15 16 17 18 20 21 22 22 23 24 25 26 27 27 26 25 24 23 22 22 24 25 24 23 24 24 24 23 22 22 23 22 21 22 24 24 23 22 23 24 22 21 21 20 19 18 18 17 16 16 15 14 13 12 12 12 12 12
3 5 5 4 5 6 6 6 7 8 9 9 9 8 7 7 6 4 4 3 3 3 5 5 5 7 10 12 13 15 16 17 18 20 22 23 24 25 25 25 26 25 25 23 22 21 21 22 24 25 25 25 25 24 24 24 22 21 21 22 23 23 24 24 23 22 22 23 24 23 21 19 18 18 18 18 17 17 17 17 16 15 15 14 13 13 12
4 4 4 4 5 7 7 8 8 8 9 10 10 9 9 8 6 4 3 2 2 2 2 3 4 5 7 10 12 14 15 17 19 21 22 23 24 24 24 24 24 24 23 22 20 19 20 22 25 25 25 25 25 24 23 23 22 20 20 22 24 24 24 23 22 22 22 22 22 22 20 19 17 17 18 18 19 20 19 17 17 16 15 14 14 13 11
2 3 2 2 4 6 7 9 9 9 9 9 10 11 11 10 8 5 2 2 2 3 2 1 2 3 5 7 10 12 14 16 19 21 22 23 24 23 22 20 19 21 22 21 19 17 18 21 24 24 23 22 21 20 20 20 20 19 19 21 23 24 23 22 21 22 22 21 21 21 21 20 19 18 18 19 20 21 19 17 16 16 15 14 13 13 12
1 1 1 2 3 5 7 9 10 9 8 9 10 11 11 10 9 6 3 2 2 2 2 2 2 2 3 5 7 10 13 16 19 22 23 24 25 24 22 18 16 17 20 20 17 16 17 20 22 22 21 20 19 19 20 21 21 20 20 20 21 23 23 21 22 22 22 21 21 22 22 21 19 18 18 18 18 18 18 17 16 16 15 14 13 12 12
4 3 1 1 1 4 8 10 10 9 8 9 10 10 11 10 9 7 5 2 2 2 3 3 3 4 3 4 6 9 13 16 20 23 24 25 25 25 23 19 17 18 19 18 17 17 19 21 22 22 20 20 20 21 21 21 22 21 20 20 20 21 22 22 23 23 21 20 21 22 22 21 19 17 15 14 14 15 16 16 16 14 13 13 12 12 11
4 4 2 1 1 3 7 10 10 8 8 8 9 10 11 10 9 8 6 3 1 2 2 3 4 4 5 5 6 10 14 18 21 23 24 25 24 23 22 20 18 19 19 18 18 19 21 23 23 22 21 22 22 21 20 20 19 19 20 20 20 20 21 22 22 22 21 21 22 22 20 18 17 15 14 12 12 13 14 15 14 13 12 12 12 12 13
3 4 4 2 1 1 4 7 8 8 8 8 9 10 10 10 8 7 6 5 3 2 2 3 3 4 5 6 7 9 13 18 22 24 24 24 22 21 19 18 18 18 18 18 19 21 23 24 23 22 22 23 23 20 18 18 18 18 20 21 20 19 20 21 20 20 20 22 23 21 18 16 14 13 13 12 12 12 12 12 12 12 13 14 14 15 14
2 2 2 1 1 3 4 5 7 8 9 10 10 10 9 9 8 7 6 5 4 2 2 2 3 3 4 6 8 9 12 15 19 22 23 22 20 18 17 17 18 19 19 20 21 22 21 21 21 22 22 22 19 16 16 17 17 17 18 18 17 17 18 18 18 19 22 23 22 20 18 15 14 12 12 12 12 12 12 12 12 12 12 13 13 14 13
2 2 2 2 3 5 5 5 6 7 8 10 11 10 9 8 8 7 6 5 3 1 1 1 3 4 4 6 8 10 12 14 16 18 19 19 17 16 17 18 20 20 21 21 21 21 20 20 21 22 21 17 14 14 15 15 15 14 13 13 12 13 16 18 19 20 22 22 20 18 16 15 14 13 13 12 12 11 11 12 12 12 12 12 12 13 13
2 3 3 3 3 4 5 5 6 6 7 8 10 10 8 7 7 7 6 4 2 0 1 1 3 4 5 6 8 10 12 14 16 17 17 16 16 16 17 19 21 23 23 20 17 18 21 23 23 20 16 14 14 15 15 15 14 13 11 9 9 11 13 16 18 19 20 19 17 15 13 12 12 12 12 11 11 11 11 11 12 12 12 12 11 11 11
3 3 3 3 2 3 4 4 5 6 6 8 9 9 8 7 6 6 6 5 2 2 2 2 3 4 4 6 9 11 12 13 14 15 16 16 16 17 17 18 21 24 24 18 14 16 21 23 22 19 17 16 17 16 15 15 16 15 12 8 7 9 11 13 15 16 16 15 14 13 12 12 11 11 11 10 10 10 10 10 10 10 10 10 10 10 9
2 2 2 2 3 3 4 4 5 5 5 6 7 8 7 7 6 6 6 4 1 1 1 2 3 4 5 6 8 10 12 12 13 15 15 16 17 19 19 18 19 22 21 17 15 18 20 20 19 18 18 17 16 16 16 16 17 16 14 12 10 9 10 12 13 13 13 14 14 14 12 11 9 9 9 8 9 9 10 10 10 10 10 10 11 11 11
Wind_Direction
236 228 164 155 134 137 150 151 154 138 125 132 145 188 200 155 151 231 229 181 183 208 232 250 240 201 162 157 154 152 152 154 157 156 157 159 162 169 174 176 178 180 180 181 182 182 184 186 184 184 186 187 187 192 195 189 186 188 191 193 195 196 198 198 196 195 194 196 206 215 216 206 197 194 191 182 173 168 168 168 163 160 162 169 175 172 164
328 344 154 149 131 132 145 158 166 152 140 149 161 191 193 137 152 227 180 150 191 217 209 234 256 94 129 137 140 143 146 150 155 156 158 161 164 170 175 178 179 181 182 182 183 184 185 185 184 183 185 186 187 190 190 186 186 191 193 196 199 198 196 195 194 195 201 210 219 215 197 187 186 187 182 174 167 166 166 161 159 164 167 169 167 162 158
340 337 65 120 122 133 140 144 148 134 124 125 131 146 127 97 61 264 118 103 297 257 205 117 107 119 126 129 136 143 147 152 154 155 159 162 166 172 177 179 180 181 181 183 185 185 186 187 185 183 184 186 187 187 185 186 192 193 192 193 195 194 195 197 200 207 214 215 208 192 183 182 184 185 182 178 175 177 176 165 158 162 162 159 156 156 160
321 328 48 88 90 98 109 117 139 138 129 132 159 163 150 152 154 116 99 107 253 247 144 114 124 131 134 138 145 149 155 159 159 159 163 168 172 176 180 181 181 181 182 184 186 186 185 185 183 181 183 186 187 187 188 192 195 192 189 190 193 195 197 198 200 204 202 190 180 178 181 181 184 187 187 184 182 181 180 171 166 165 162 160 159 159 164
292 317 40 89 83 81 93 218 190 160 132 126 137 121 192 174 152 133 151 202 208 164 132 141 149 147 159 168 164 164 165 164 165 167 169 173 178 181 183 183 182 182 183 183 185 185 183 182 181 182 187 190 190 191 192 192 191 188 188 192 196 195 189 186 185 184 181 178 177 179 180 181 184 186 183 181 180 182 184 180 175 170 164 163 162 160 166
264 307 4 72 88 120 221 244 207 175 150 140 140 156 220 199 172 139 156 176 158 147 152 166 170 173 186 184 174 169 168 166 168 171 173 176 180 183 185 185 183 183 184 183 185 185 183 181 182 184 190 194 194 194 193 190 189 190 191 194 196 191 182 179 177 175 176 178 178 177 178 180 180 177 176 179 180 184 189 182 176 172 167 166 162 159 161
125 330 33 71 125 216 246 269 248 216 185 151 135 89 287 224 204 134 122 144 160 160 148 143 149 164 187 180 173 169 171 172 170 171 174 177 182 186 187 187 186 186 186 185 185 184 184 184 185 186 190 195 199 198 194 192 193 191 188 188 191 190 183 177 174 173 174 176 176 175 174 173 174 175 179 185 185 185 185 176 173 173 170 166 160 156 155
115 53 61 116 209 255 293 310 285 209 106 114 118 81 348 292 234 177 147 156 160 138 110 109 121 128 132 154 172 173 176 177 175 175 178 180 185 191 192 191 190 189 189 188 186 185 184 185 187 189 190 193 198 198 194 193 191 184 183 188 189 190 184 175 172 172 172 174 175 174 171 171 175 181 185 190 193 192 183 174 171 170 166 162 159 156 152
124 109 87 172 289 333 335 329 310 188 95 128 140 139 287 292 254 172 134 118 125 118 108 110 118 124 122 120 184 182 182 185 185 184 186 188 192 196 196 194 193 191 190 190 188 186 186 186 189 193 192 193 196 194 190 190 184 178 185 191 188 190 186 176 172 171 171 174 176 174 173 174 180 188 192 195 199 190 176 170 165 163 161 158 157 156 151
90 99 72 36 32 354 265 266 275 280 265 232 161 115 338 300 304 162 138 130 131 125 114 115 120 124 130 165 208 191 186 189 189 188 190 192 194 195 194 193 192 191 191 192 192 191 190 190 192 195 195 196 195 192 187 185 183 184 188 187 188 201 195 181 175 172 172 176 177 175 176 178 183 191 195 194 186 169 165 164 159 157 158 156 154 154 150
46 94 96 91 108 203 249 261 278 311 302 245 140 87 293 292 320 99 142 142 143 141 138 134 129 130 153 223 211 194 187 188 189 189 190 191 193 195 196 195 194 193 194 196 196 196 197 196 194 195 196 196 196 193 187 185 190 194 189 182 190 202 191 178 176 174 173 175 175 174 175 175 178 181 180 175 164 155 158 161 157 155 158 156 153 152 153
65 91 90 161 188 230 264 261 283 314 321 97 93 83 247 274 325 86 155 156 157 154 149 145 145 163 184 209 208 194 187 188 191 192 193 194 194 195 196 197 197 195 196 198 197 198 200 200 197 195 195 194 195 195 190 190 195 195 190 186 189 189 180 173 172 172 171 171 171 171 170 165 162 160 158 157 155 153 157 159 156 156 159 159 156 154 157
69 80 82 77 253 268 276 281 302 315 328 80 92 175 235 273 323 307 172 167 164 160 159 160 175 187 186 202 199 189 185 189 192 194 196 196 196 197 196 197 198 196 197 200 200 199 200 200 198 195 193 192 194 195 193 194 195 192 188 183 178 174 171 169 168 169 169 169 170 169 165 158 152 150 151 153 156 158 159 157 156 156 159 163 161 159 162
64 89 96 34 286 262 299 309 314 327 12 134 183 230 257 285 308 312 179 179 174 170 173 179 190 187 180 194 189 183 185 191 192 194 196 195 195 196 197 199 201 199 195 195 194 193 195 198 198 195 192 191 191 193 193 193 191 186 178 171 169 169 168 167 167 168 169 170 171 168 163 159 155 153 155 159 162 163 161 158 157 156 158 164 165 163 165
81 68 62 47 225 255 338 335 332 7 89 197 231 248 285 300 314 337 187 189 186 181 183 191 203 191 183 185 183 182 186 191 191 193 196 195 194 195 196 199 201 201 198 195 193 192 193 195 196 193 191 190 190 193 194 190 185 178 170 168 170 170 167 167 169 170 170 171 173 170 167 166 164 164 167 170 170 170 166 161 159 157 157 161 163 163 164
104 95 116 191 206 257 340 355 17 65 34 352 261 282 324 331 335 336 199 194 194 190 189 194 198 190 186 184 181 181 185 189 190 190 192 195 196 196 197 198 198 198 198 196 193 193 194 194 193 193 192 190 192 198 196 188 181 174 169 170 172 169 167 168 170 172 173 173 174 174 172 172 174 176 176 174 173 173 170 166 163 161 160 162 164 164 164
136 173 213 229 237 289 346 11 44 32 37 49 59 44 1 350 340 328 226 197 196 194 193 195 193 188 191 186 181 183 186 188 189 189 191 195 198 197 197 197 196 196 196 195 193 192 193 193 192 193 195 196 199 202 197 188 181 175 170 170 171 168 167 169 171 173 174 173 174 175 174 178 183 181 176 173 173 173 171 168 167 164 162 164 167 168 170
325 216 221 306 337 342 10 34 43 43 43 41 39 33 14 360 343 328 287 207 198 195 194 196 194 193 193 186 182 185 188 189 189 190 191 195 198 198 197 195 193 193 194 196 195 192 191 192 191 192 198 204 205 202 195 185 180 177 172 171 171 170 171 173 174 175 175 172 173 175 175 179 180 176 172 173 174 174 171 168 168 166 164 166 168 172 175
52 82 292 346 352 347 8 36 52 52 46 36 30 25 9 358 347 334 307 219 202 198 196 197 198 196 192 186 183 185 189 190 191 191 192 193 196 197 197 195 192 193 194 195 193 191 190 190 192 196 201 203 203 199 190 183 180 178 176 174 174 174 176 177 176 176 175 172 173 175 174 173 172 172 173 176 178 178 175 171 167 165 165 166 169 174 176
100 212 275 323 343 358 28 45 46 37 38 35 29 26 13 357 346 337 311 217 204 199 197 200 202 198 193 188 186 186 188 190 191 191 191 192 193 194 196 195 194 194 196 195 193 192 191 191 194 198 198 197 196 194 188 184 182 180 178 177 177 178 179 179 179 179 177 175 175 176 173 171 172 175 179 182 184 183 180 173 166 163 163 164 167 172 175
349 269 311 342 6 36 42 48 41 30 32 29 18 18 12 357 345 335 286 205 203 201 199 201 203 199 193 189 187 187 189 190 191 191 191 191 192 193 194 195 196 198 198 197 195 194 194 194 194 195 196 195 195 193 190 187 185 182 180 180 181 180 181 182 181 181 181 180 179 178 175 173 175 178 181 183 183 180 173 163 152 148 154 161 166 168 171
360 247 309 348 29 237 349 27 34 27 25 22 14 12 7 356 343 324 247 199 198 201 201 202 205 202 195 191 189 189 190 191 191 191 190 191 192 193 194 195 198 200 201 199 197 195 195 194 193 194 196 197 195 193 192 191 188 185 184 183 183 185 186 185 185 185 184 184 183 182 181 179 179 180 179 178 177 176 171 161 148 137 135 150 164 169 171
210 263 311 330 285 258 340 26 32 24 21 18 13 13 9 355 332 306 264 210 196 196 198 201 205 202 197 195 194 191 189 190 191 191 192 192 191 192 194 195 195 197 197 197 197 196 195 194 194 194 196 195 193 193 194 193 192 191 189 187 187 189 189 189 189 189 188 187 187 188 187 185 185 182 178 175 176 180 180 175 170 169 170 169 170 174 178
268 328 344 342 322 345 41 46 36 24 23 21 16 19 18 360 331 305 277 236 206 196 195 198 201 202 205 207 202 195 190 189 191 191 193 194 192 193 195 195 194 194 195 196 198 198 196 194 193 193 193 193 194 195 196 196 196 195 194 193 192 192 193 193 193 193 193 192 192 191 189 188 187 185 181 178 180 184 184 183 185 190 195 201 200 184 178
297 335 352 357 360 48 69 66 52 39 33 28 25 30 33 19 355 320 287 263 238 222 215 210 207 210 213 207 200 196 193 191 192 192 192 193 195 195 195 196 196 197 198 199 200 199 197 195 193 193 193 193 195 197 198 198 198 197 199 200 200 199 197 196 196 197 197 196 196 195 192 188 187 187 187 186 186 184 182 181 185 193 200 207 211 195 178
330 338 352 12 39 62 79 78 63 53 48 43 40 39 40 47 43 355 302 273 257 246 239 232 223 218 214 204 197 194 193 191 191 193 194 194 195 197 197 198 199 199 200 201 200 199 198 196 195 195 195 195 196 198 199 198 199 201 203 205 207 207 204 202 201 200 200 200 199 195 191 189 189 191 194 195 193 190 186 184 185 191 198 203 203 194 181
4 351 330 325 43 55 76 90 82 70 62 55 57 59 54 65 83 53 342 272 257 247 240 237 227 209 199 196 191 188 189 191 191 192 195 197 198 200 201 201 201 201 202 203 202 199 197 198 197 196 197 198 198 198 199 200 202 203 205 207 209 210 209 208 207 205 203 201 196 192 190 191 194 197 199 200 203 203 201 199 198 199 200 198 194 188 182
27 22 26 124 99 83 90 101 102 95 81 67 64 60 45 33 128 213 223 187 237 237 229 227 219 200 189 188 189 187 188 193 193 193 197 200 200 200 201 202 203 203 204 205 202 198 197 200 200 198 199 200 200 200 201 203 204 205 207 209 210 210 210 210 210 206 201 197 193 191 193 196 198 201 204 208 211 213 214 217 216 208 198 192 188 184 182
49 49 63 104 110 106 106 107 106 100 84 69 62 54 37 22 13 274 232 203 219 230 226 225 226 215 202 199 201 197 194 195 196 197 200 201 200 201 203 204 205 204 205 204 200 196 198 203 203 201 201 202 203 203 204 206 207 209 210 212 212 212 210 209 206 201 196 194 193 195 197 198 200 204 209 213 215 217 218 217 212 201 192 187 184 182 181
61 66 84 101 104 116 123 114 106 99 85 65 46 39 31 18 9 357 295 233 220 224 228 231 230 220 209 207 210 208 203 201 200 200 201 202 202 203 205 204 202 200 201 203 200 197 201 206 206 204 203 203 204 205 206 207 210 212 214 215 214 211 207 202 198 195 194 194 195 197 200 202 205 209 212 214 214 214 212 208 200 192 187 182 178 176 174
83 136 179 152 119 120 124 118 114 113 100 75 39 27 29 24 17 11 350 274 222 223 233 236 227 213 206 209 213 210 206 203 201 200 202 204 204 204 206 209 208 206 205 204 201 201 205 208 206 204 204 205 205 206 207 209 211 213 212 209 206 204 201 197 194 193 195 197 198 201 204 207 210 214 215 213 210 206 201 196 190 184 179 173 168 164 160
153 165 179 170 144 129 126 123 124 128 118 101 64 36 29 17 10 11 12 4 296 244 238 234 225 215 208 209 210 208 205 204 202 201 202 204 205 206 209 214 217 216 212 207 204 204 207 207 204 202 204 205 206 207 208 210 212 210 205 201 199 197 196 195 194 195 198 202 205 208 210 212 216 216 212 206 201 196 190 184 178 172 168 163 158 153 148
150 126 114 122 129 122 116 108 97 97 98 90 81 65 20 341 336 356 17 12 350 305 254 237 231 225 218 213 210 208 207 205 202 201 202 204 205 207 209 212 216 216 212 208 205 206 207 206 203 203 205 206 205 204 205 207 208 205 201 198 195 193 194 196 198 199 202 207 212 215 217 217 216 209 200 194 189 184 178 171 167 164 162 160 158 156 153
95 80 67 60 62 72 81 78 65 53 50 54 65 66 33 335 322 346 1 349 339 328 288 248 234 228 222 217 213 211 211 209 207 205 206 208 208 207 209 211 212 212 211 209 207 206 205 204 204 206 204 200 198 197 198 202 205 203 200 198 195 195 197 200 201 204 208 212 214 214 211 208 201 193 186 182 178 174 169 166 166 166 167 169 173 176 178
66 62 59 56 51 50 56 60 55 44 35 35 42 40 27 349 309 312 320 300 300 313 317 290 250 234 226 222 221 221 221 219 216 213 212 213 213 211 210 209 207 207 208 208 207 206 203 201 204 207 200 193 192 193 195 199 202 203 201 200 200 202 203 204 206 211 214 211 205 199 195 191 185 179 176 174 172 171 171 172 173 173 172 175 180 185 189
59 55 54 47 34 24 17 19 26 20 7 4 2 353 340 315 292 287 291 295 292 295 307 315 290 252 235 229 228 230 231 230 226 221 218 217 216 215 212 209 206 205 205 203 203 204 202 198 201 202 194 189 190 192 193 197 202 203 202 202 205 206 206 208 212 214 208 198 192 187 184 180 177 174 174 176 177 179 180 182 183 183 180 180 183 187 192
60 51 45 36 26 20 5 358 359 352 340 337 333 328 324 311 291 275 268 277 301 296 292 303 311 286 251 237 233 233 234 233 230 226 223 221 219 216 213 210 207 206 205 203 202 201 199 197 199 195 186 186 191 193 192 195 200 203 204 206 206 206 207 210 211 203 192 185 182 179 175 173 174 176 180 183 186 186 187 188 190 191 193 195 197 200 204
56 43 35 31 36 31 11 9 9 357 342 330 321 318 314 307 297 281 265 262 277 287 285 287 293 287 261 243 235 234 234 233 231 228 226 225 223 218 214 211 211 211 210 207 203 198 194 194 194 187 180 182 188 190 189 190 193 197 205 209 207 205 207 207 198 188 181 177 175 174 175 176 179 182 184 186 187 188 190 192 192 195 201 208 213 216 219
54 43 32 29 33 24 9 10 12 8 2 358 347 332 319 304 297 289 277 269 269 272 274 276 275 268 255 244 238 236 234 232 231 227 223 221 220 217 213 212 213 212 211 207 201 194 190 191 191 184 180 181 183 183 186 189 189 191 199 204 204 205 206 198 187 181 179 178 178 179 181 183 185 187 190 190 190 192 195 197 200 203 206 209 214 218 218
58 49 41 36 33 23 8 3 7 10 14 18 11 355 340 327 312 298 290 287 279 269 266 263 255 248 245 242 240 238 236 233 230 225 219 214 212 210 209 208 208 208 208 206 199 193 192 195 191 184 181 182 182 183 187 190 191 192 196 200 201 203 200 193 188 188 189 189 189 189 189 189 191 194 198 199 201 203 204 205 207 207 205 207 212 215 215
91 68 56 49 41 28 12 5 8 11 13 14 10 360 347 337 326 310 300 306 305 284 268 256 242 241 244 243 240 239 237 233 228 223 218 215 211 208 206 205 204 204 205 203 198 196 198 197 191 186 184 183 183 185 188 190 191 194 197 199 203 204 200 197 198 200 199 198 198 197 196 196 198 202 205 210 214 216 214 212 213 214 214 216 216 215 217
113 74 51 51 51 39 23 15 16 17 13 9 6 3 359 354 344 319 293 308 346 335 282 244 228 234 243 247 246 241 234 228 222 218 215 215 215 214 210 206 202 201 201 199 198 200 201 197 193 191 186 180 179 183 187 188 189 193 197 202 208 208 205 204 206 204 200 200 201 202 202 205 207 210 214 218 219 218 216 218 221 224 224 223 219 217 220
101 38 18 39 50 41 30 20 14 11 9 6 7 9 7 5 1 349 310 302 353 4 351 273 223 224 236 248 250 242 232 224 218 213 209 210 214 217 217 214 208 202 198 198 200 205 204 200 195 190 182 176 176 179 182 185 189 194 200 207 211 209 208 209 210 207 205 207 209 210 210 211 212 215 218 218 216 215 219 225 228 226 224 223 221 222 226
196 317 8 29 26 29 26 14 3 359 0 2 5 9 8 5 4 2 344 310 328 355 360 352 331 290 262 253 249 242 232 222 215 211 208 206 206 209 213 217 217 209 203 203 206 204 198 192 185 177 172 175 181 184 186 189 193 195 199 205 207 206 206 209 208 206 208 213 215 213 212 212 214 219 222 220 219 221 225 226 224 220 218 220 224 227 231
221 223 234 345 5 25 19 3 350 346 352 355 360 6 8 7 7 7 3 343 313 322 331 334 336 330 310 273 248 236 227 219 214 210 208 208 208 207 205 206 211 211 206 202 199 195 188 181 175 171 174 183 189 190 191 193 194 195 199 203 204 205 207 208 208 210 216 219 217 214 214 216 220 224 223 221 222 224 221 216 215 216 218 223 227 230 233
220 216 229 267 306 19 8 356 347 345 350 353 357 3 5 5 3 1 1 356 312 288 296 303 310 315 308 280 246 225 215 210 207 207 210 213 215 212 203 199 204 207 202 194 190 188 183 177 176 180 186 187 182 180 183 189 195 201 206 208 211 214 215 214 215 219 222 217 211 209 212 216 218 219 217 214 214 214 212 212 217 224 230 233 236 240 246
224 215 223 244 269 2 359 356 359 3 5 4 2 359 358 360 358 352 347 342 320 266 239 247 271 287 290 279 257 235 219 209 204 204 209 213 213 211 206 202 202 200 195 188 185 182 180 182 188 194 191 180 172 174 186 197 205 211 214 216 220 221 217 215 217 218 213 206 205 207 211 213 213 213 214 214 215 217 220 226 236 244 247 246 244 245 246
265 231 215 227 336 4 7 10 15 15 10 6 2 356 352 353 353 347 341 341 335 305 248 236 238 251 269 267 254 243 235 224 213 208 207 208 209 211 209 203 196 191 188 185 185 185 187 193 197 194 184 175 176 189 201 204 205 209 213 216 218 215 210 209 210 208 203 203 207 211 213 214 215 217 221 227 231 235 239 243 245 245 242 238 234 233 233
273 264 256 277 316 336 347 360 12 12 4 359 358 354 348 347 349 347 345 348 357 5 344 269 224 220 237 249 242 235 234 232 226 218 210 206 206 207 201 191 185 184 183 184 188 192 193 189 182 176 173 176 188 199 200 196 196 200 203 204 203 200 200 200 200 199 200 204 210 215 221 227 230 232 234 235 234 232 231 229 228 228 229 229 230 232 234
247 250 258 264 286 314 329 345 1 360 350 349 353 351 346 347 351 349 345 345 346 198 245 260 216 203 210 225 231 228 225 223 224 219 208 198 198 200 195 187 184 183 182 182 188 194 191 184 177 173 174 182 190 191 190 189 189 188 187 192 201 205 204 202 201 202 205 210 214 219 224 226 224 222 222 220 217 217 219 222 226 231 235 236 236 237 239
271 277 264 247 261 300 317 331 342 337 330 337 347 349 346 347 348 343 340 341 324 238 237 230 193 178 187 205 214 217 218 218 215 208 197 189 189 192 189 183 182 184 186 188 190 188 184 183 183 183 182 181 183 185 189 190 187 182 181 189 201 207 210 210 208 205 205 205 205 203 202 203 207 212 216 219 222 225 229 231 233 235 235 235 237 242 247
274 294 256 231 247 275 289 300 314 320 324 337 348 352 349 345 339 336 337 338 326 230 261 252 200 178 182 197 201 202 205 206 200 192 187 185 187 188 185 180 179 183 189 193 190 180 173 171 174 177 179 181 185 190 195 197 196 197 205 214 213 206 205 208 206 202 198 197 195 193 195 202 214 222 227 231 237 241 242 242 242 242 242 244 248 252 256